Campo, CA

8:14 AM PDT on September 21, 2017 (GMT -0700)
Campo

Weather History for KCZZ - March, 2013

Change the Weather History Date:

Saturday, March 2, 2013

  Actual Average Record
Temperature  
Mean Temperature 58 °F 51 °F  
Max Temperature 80 °F 66 °F 84 °F (1999)
Min Temperature 35 °F 36 °F 18 °F (1977)
Degree Days  
Heating Degree Days 7 14  
Month to date heating degree days 17 29  
Since 1 July heating degree days 2161 2080  
Cooling Degree Days 0 0  
Month to date cooling degree days 0 0  
Year to date cooling degree days 0 0  
Growing Degree Days 8 (Base 50)    
Moisture  
Dew Point 23 °F    
Average Humidity 35    
Maximum Humidity 59    
Minimum Humidity 10    
Precipitation  
Precipitation 0.00 in 0.11 in 2.91 in (1983)
Month to date precipitation 0.00 0.22  
Year to date precipitation 3.01 6.43  
Since 1 July precipitation 7.48  
Snow  
Snow 0.00 in - - ()
Month to date snowfall 0.0  
Year to date snowfall 0.0  
Snow Depth 0.00 in    
Sea Level Pressure  
Sea Level Pressure 30.13 in    
Wind  
Wind Speed 7 mph (NE)    
Max Wind Speed 22 mph    
Max Gust Speed 26 mph    
T = Trace of Precipitation, MM = Missing Value Source: NWS Daily Summary

Daily Weather History Graph

Daily Weather History Graph

Search for Another Location

Airport or City:

Trip Planner

Search our weather history database for the weather conditions in past years. The results will help you decide how hot, cold, wet, or windy it might be!

Date:

Astronomy

Mar. 02, 2013 Rise Set
Actual Time 6:11 AM PST 5:44 PM PST
Civil Twilight 5:47 AM PST 6:08 PM PST
Nautical Twilight 5:18 AM PST 6:37 PM PST
Astronomical Twilight 4:50 AM PST 7:06 PM PST
Moon 11:07 PM PST (3/2) 9:03 AM PST (3/2)
Length of Visible Light 12h 21m
Length of Day
11h 32m
Waning Gibbous, 73% of the Moon is Illuminated
Mar 2
Waning Gibbous
Mar 4
Last Quarter
Mar 11
New
Mar 19
First Quarter
Mar 27
Full

Hourly Weather History & Observations

Time (PST) Temp. Windchill Dew Point Humidity Pressure Visibility Wind Dir Wind Speed Gust Speed Precip Events Conditions
12:52 AM 37.0 °F - 21.9 °F 54% 30.21 in - Calm Calm - N/A   Unknown
1:52 AM 36.0 °F - 23.0 °F 59% 30.20 in - Calm Calm - N/A   Unknown
2:52 AM 48.0 °F - 21.9 °F 36% 30.16 in - Variable 3.5 mph - N/A   Unknown
3:52 AM 55.0 °F - 21.0 °F 27% 30.15 in - Variable 3.5 mph - N/A   Unknown
4:52 AM 54.0 °F - 21.0 °F 28% 30.17 in - Calm Calm - N/A   Unknown
5:52 AM 50.0 °F - 21.0 °F 32% 30.18 in - NNE 5.8 mph - N/A   Unknown
6:52 AM 55.0 °F - 21.9 °F 28% 30.19 in - NE 4.6 mph - N/A   Unknown
7:52 AM 66.0 °F - 23.0 °F 20% 30.17 in - ENE 12.7 mph 17.3 mph N/A   Unknown
8:52 AM 69.1 °F - 23.0 °F 18% 30.17 in - ENE 19.6 mph 26.5 mph N/A   Unknown
9:52 AM 72.0 °F - 21.0 °F 15% 30.16 in - ENE 16.1 mph 25.3 mph N/A   Unknown
10:52 AM 75.0 °F - 19.0 °F 12% 30.17 in - ENE 11.5 mph - N/A   Unknown
11:52 AM 78.1 °F - 21.0 °F 12% 30.13 in - East 6.9 mph - N/A   Unknown
12:52 PM 79.0 °F - 25.0 °F 14% 30.10 in - SW 10.4 mph 16.1 mph N/A   Unknown
1:52 PM 79.0 °F - 17.1 °F 10% 30.09 in - West 8.1 mph 18.4 mph N/A   Unknown
2:52 PM 77.0 °F - 24.1 °F 14% 30.07 in - WSW 12.7 mph - N/A   Unknown
3:52 PM 75.0 °F - 24.1 °F 15% 30.04 in - SW 11.5 mph - N/A   Unknown
4:52 PM 66.9 °F - 26.1 °F 21% 30.05 in - SW 10.4 mph - N/A   Unknown
5:52 PM 62.1 °F - 27.0 °F 26% 30.07 in - SW 9.2 mph - N/A   Unknown
6:52 PM 55.9 °F - 27.0 °F 33% 30.09 in - North 4.6 mph - N/A   Unknown
7:52 PM 48.9 °F - 27.0 °F 43% 30.09 in - NE 4.6 mph - N/A   Unknown
8:52 PM 42.1 °F 37.1 °F 26.1 °F 53% 30.11 in - ENE 8.1 mph - N/A   Unknown
9:52 PM 39.9 °F 35.1 °F 26.1 °F 58% 30.11 in - NE 6.9 mph - N/A   Unknown
10:52 PM 37.0 °F 31.6 °F 25.0 °F 62% 30.10 in - NE 6.9 mph - N/A   Unknown
11:52 PM 34.0 °F 29.8 °F 25.0 °F 70% 30.09 in - NE 4.6 mph - N/A   Unknown